Skip Page Navigation
NASA JPL Caltech
NASA Logo - Jet Propulsion Laboratory + View the NASA Portal
+ Center for Near-Earth Object Studies
JPL Home Earth Solar System Stars & Galaxies Technology
JPL Solar System Dynamics
BODIES ORBITS EPHEMERIDES TOOLS PHYSICAL DATA DISCOVERY FAQ SITE MAP
JPL Small-Body Database Browser
Search: [ help ]  
434328 (2004 JD11)
Classification: Main-belt Asteroid          SPK-ID: 2434328
Ephemeris | Orbit Diagram | Orbital Elements | Mission Design | Physical Parameters | Discovery Circumstances | Close-Approach Data ]

[ show orbit diagram ]
Orbital Elements at Epoch 2459000.5 (2020-May-31.0) TDB
Reference: JPL 16 (heliocentric ecliptic J2000)
 Element Value Uncertainty (1-sigma)   Units 
e .219190781368534 9.5617e-08  
a 3.120206398445029 4.0268e-08 au
q 2.436285919938764 2.999e-07 au
i 20.77761046977328 8.4515e-06 deg
node 95.7824101494393 2.3489e-05 deg
peri 137.9006442403471 2.9499e-05 deg
M 330.2758955196539 1.6577e-05 deg
tp 2459166.718626736369
(2020-Nov-13.21862674)
9.4077e-05 TDB
period 2013.137373563567
5.51
3.8971e-05
1.067e-07
d
yr
n .1788253522722813 3.4618e-09 deg/d
Q 3.804126876951294 4.9095e-08 au
  Orbit Determination Parameters
   # obs. used (total)      191  
   data-arc span      5746 days (15.73 yr)  
   first obs. used      2004-05-12  
   last obs. used      2020-02-04  
   planetary ephem.      DE431  
   SB-pert. ephem.      SB431-N16  
   condition code      0  
   norm. resid. RMS      .56129  
   source      ORB  
   producer      Otto Matic  
   solution date      2020-Feb-26 09:47:56  

Additional Information
 Earth MOID = 1.45957 au 
 Jupiter MOID = 1.44278 au 
 T_jup = 3.080 
[ show covariance matrix ]

Ephemeris | Orbit Diagram | Orbital Elements | Mission Design | Physical Parameters | Discovery Circumstances | Close-Approach Data ]

Physical Parameter Table
Parameter Symbol Value Units Sigma Reference Notes
absolute magnitude H 15.3   n/a MPO428051  

434328 (2004 JD11)          Discovered 2004-May-12 by CSS at Catalina
Reference: Last Updated: 2015-06-04

[ show close-approach data ]
Ephemeris | Orbit Diagram | Orbital Elements | Mission Design | Physical Parameters | Discovery Circumstances | Close-Approach Data ]
ABOUT SSD CREDITS/AWARDS PRIVACY/COPYRIGHT GLOSSARY LINKS
FirstGov 2020-Jul-02 20:13 UT
(server date/time)  
NASA Home Page
Site Manager:   Ryan S. Park
Webmaster  Alan B. Chamberlin